Regional Weather Roundup
Issued by NWS State College, PA

Home | Current Version | Previous Version | Graphics & Text | Print | Product List | Glossary On
Versions: 1 2 3 4 5 6 7 8 9 10 11 12 13 14 15 16 17 18 19 20 21 22 23 24 25 26 27 28 29 30 31 32 33 34 35 36 37 38 39 40 41 42 43 44 45 46 47 48 49 50
000
ASUS41 KCTP 180210
RWRCTP

REGIONAL WEATHER ROUNDUP
NATIONAL WEATHER SERVICE STATE COLLEGE PA
1000 PM EDT FRI APR 17 2015

Note: "fair" indicates few or no clouds below 12,000 feet with no
significant weather and/or obstructions to visibility.

* = STATION THAT DOES NOT REPORT PRECIPITATION /E.G. RAIN...SNOW...ETC/
    THUNDER OR FOG.

PAZ002>004-007>009-013>016-020>023-029>032-180300-
WESTERN PENNSYLVANIA

CITY           SKY/WX    TMP DP  RH WIND       PRES   REMARKS
ERIE           CLEAR     54  46  74 S6        30.04S
MEADVILLE      CLEAR     55  45  68 NE3       30.05S
FRANKLIN*      CLEAR     55  43  62 CALM      30.08R
NEW CASTLE     FAIR      58  46  64 CALM      30.06R
BEAVER COUNTY  NOT AVBL
BUTLER*        MOCLDY    55  46  71 NE3       30.06S
PITTSBURGH INT MOCLDY    63  47  55 N6        30.04R
PITTSBURGH     PTCLDY    62  45  53 N6        30.03R
INDIANA*       PTCLDY    54  50  87 CALM      30.08R
LATROBE        CLEAR     55  52  88 CALM      30.05R
WASHINGTON CO* MOCLDY    54  45  71 CALM      30.06R
$$

PAZ004>006-010>012-017>019-024>028-033>037-041-042-045-046-049>053-180300-
CENTRAL PENNSYLVANIA

CITY           SKY/WX    TMP DP  RH WIND       PRES   REMARKS
BRADFORD       CLEAR     49  42  77 CALM      30.05R
DUBOIS         CLEAR     59  45  59 W6        30.04R
CLEARFIELD     CLEAR     56  47  71 CALM      30.04R
JOHNSTOWN      PTCLDY    58  46  64 NW5       30.05R
ALTOONA        PTCLDY    56  47  71 NW3       30.04R
STATE COLLEGE  NOT AVBL
WILLIAMSPORT   MOCLDY    58  49  72 CALM      29.98R
SELINSGROVE    CLEAR     55  50  83 CALM      30.00R
FT INDIANTOWN  PTCLDY    67  50  54 W7        29.99R
CAPITAL CITY   CLEAR     60  49  66 CALM      29.99R
HARRISBURG     PTCLDY    57  49  74 NW5       29.98R
YORK           CLEAR     53  50  89 CALM      29.99R
$$

PAZ038>040-043-044-047-048-054-055-060>062-067>071-180300-
EASTERN PENNSYLVANIA

CITY           SKY/WX    TMP DP  RH WIND       PRES   REMARKS
SCRANTON       CLEAR     59  50  72 E3        29.99R
MOUNT POCONO   CLEAR     55  48  77 CALM      30.01R
ALLENTOWN      CLEAR     59  52  77 CALM      29.97R
QUAKERTOWN*    MOCLDY    59  54  82 CALM      29.99R
READING        CLOUDY    63  52  67 CALM      29.98R
LANCASTER      CLEAR     62  50  64 NW6       29.98R
COATESVILLE    PTCLDY    61  54  77 W3        30.00R
POTTSTOWN      CLEAR     60  53  77 CALM      29.99R
BLUE BELL      CLEAR     61  55  82 CALM      29.97R
DOYLESTOWN     MOCLDY    60  54  80 CALM      29.97R
WILLOW GROVE   NOT AVBL
NORTH PHILA    PTCLDY    64  52  64 CALM      29.98R
PHILADELPHIA   PTCLDY    66  58  75 SW6       29.98R
$$


USA.gov is the U.S. government's official web portal to all federal, state and local government web resources and services.